TimeCDT,TemperatureF,Dew PointF,Humidity,Sea Level PressureIn,VisibilityMPH,Wind Direction,Wind SpeedMPH,Gust SpeedMPH,PrecipitationIn,Events,Conditions,WindDirDegrees,DateUTC
12:53 AM,52.0,46.0,80,29.97,10.0,SSW,3.5,-,N/A,,Clear,200,2013-10-19 05:53:00
1:53 AM,52.0,46.9,83,29.96,10.0,South,5.8,-,N/A,,Partly Cloudy,180,2013-10-19 06:53:00
2:53 AM,53.1,46.9,80,29.93,10.0,Calm,Calm,-,N/A,,Partly Cloudy,0,2013-10-19 07:53:00
3:53 AM,52.0,48.0,86,29.91,10.0,Calm,Calm,-,N/A,,Overcast,0,2013-10-19 08:53:00
4:53 AM,53.1,48.0,83,29.90,10.0,South,3.5,-,N/A,,Overcast,190,2013-10-19 09:53:00
5:53 AM,54.0,48.0,80,29.89,10.0,South,3.5,-,N/A,,Overcast,190,2013-10-19 10:53:00
6:53 AM,54.0,48.0,80,29.90,10.0,SSW,6.9,-,N/A,,Overcast,210,2013-10-19 11:53:00
7:53 AM,54.0,48.9,83,29.90,10.0,SSW,6.9,-,N/A,,Mostly Cloudy,210,2013-10-19 12:53:00
8:53 AM,54.0,50.0,86,29.92,4.0,WSW,6.9,-,0.01,Rain,Rain,240,2013-10-19 13:53:00
9:22 AM,53.6,51.8,94,29.94,4.0,West,9.2,-,0.03,Rain,Light Rain,270,2013-10-19 14:22:00
9:31 AM,53.6,51.8,94,29.96,2.5,WNW,20.7,26.5,0.05,Rain,Heavy Rain,290,2013-10-19 14:31:00
9:37 AM,51.8,48.2,88,29.96,3.0,WNW,13.8,27.6,0.06,Rain,Light Rain,300,2013-10-19 14:37:00
9:44 AM,51.8,48.2,88,29.97,7.0,NW,13.8,24.2,0.07,Rain,Light Rain,310,2013-10-19 14:44:00
9:49 AM,50.0,46.4,87,29.97,5.0,NW,10.4,21.9,0.08,Rain,Rain,320,2013-10-19 14:49:00
9:53 AM,50.0,46.9,89,29.97,4.0,NW,8.1,21.9,0.08,Rain,Rain,310,2013-10-19 14:53:00
10:53 AM,50.0,46.9,89,29.99,7.0,NW,8.1,-,0.03,Rain,Light Rain,310,2013-10-19 15:53:00
11:00 AM,50.0,46.4,87,29.99,10.0,NW,5.8,-,0.00,,Overcast,310,2013-10-19 16:00:00
11:13 AM,50.0,46.4,87,29.99,10.0,NW,6.9,-,0.00,,Overcast,310,2013-10-19 16:13:00
11:50 AM,51.8,46.4,82,29.99,10.0,NW,6.9,-,0.01,,Overcast,310,2013-10-19 16:50:00
11:53 AM,51.1,46.0,83,29.99,10.0,NW,6.9,-,0.01,,Overcast,310,2013-10-19 16:53:00
12:00 PM,51.8,46.4,82,29.99,10.0,WNW,9.2,-,N/A,,Overcast,300,2013-10-19 17:00:00
12:08 PM,51.8,46.4,82,29.99,10.0,WNW,9.2,-,N/A,,Overcast,300,2013-10-19 17:08:00
12:28 PM,51.8,46.4,82,29.99,10.0,NW,6.9,-,N/A,,Overcast,320,2013-10-19 17:28:00
12:50 PM,50.0,44.6,82,29.99,10.0,NW,8.1,-,N/A,,Overcast,310,2013-10-19 17:50:00
12:53 PM,50.0,44.1,80,30.00,10.0,NW,8.1,-,N/A,,Overcast,310,2013-10-19 17:53:00
1:53 PM,50.0,44.1,80,30.00,10.0,NW,6.9,-,N/A,,Overcast,310,2013-10-19 18:53:00
2:53 PM,51.1,43.0,74,30.02,10.0,West,12.7,-,N/A,,Overcast,280,2013-10-19 19:53:00
3:09 PM,51.8,42.8,71,30.02,10.0,West,9.2,-,N/A,,Overcast,270,2013-10-19 20:09:00
3:53 PM,51.1,42.1,71,30.02,10.0,WNW,10.4,-,N/A,,Mostly Cloudy,300,2013-10-19 20:53:00
4:53 PM,51.1,39.0,63,30.03,10.0,Calm,Calm,-,N/A,,Clear,0,2013-10-19 21:53:00
5:53 PM,48.9,39.0,69,30.03,10.0,West,3.5,-,N/A,,Clear,270,2013-10-19 22:53:00
6:53 PM,46.9,39.9,77,30.04,10.0,Calm,Calm,-,N/A,,Clear,0,2013-10-19 23:53:00
7:53 PM,43.0,37.9,82,30.05,10.0,Calm,Calm,-,N/A,,Clear,0,2013-10-20 00:53:00
8:53 PM,43.0,39.0,86,30.06,10.0,Calm,Calm,-,N/A,,Clear,0,2013-10-20 01:53:00
9:53 PM,41.0,39.0,93,30.08,10.0,Calm,Calm,-,N/A,,Clear,0,2013-10-20 02:53:00
10:53 PM,39.9,37.0,89,30.09,10.0,Calm,Calm,-,N/A,,Clear,0,2013-10-20 03:53:00
11:53 PM,37.9,36.0,93,30.08,10.0,Calm,Calm,-,N/A,,Clear,0,2013-10-20 04:53:00